User: anonymous   Login
Location: Unspecified
(0.0000°N, 0.0000°E)
Time: 02:41:32
(UTC+00:00)
Language:

STARLINK-1061 - Orbit

View from above orbital plane
View from above orbital plane
View from above satellite
View from above satellite

Ground track
Ground track

The orbit data is extracted from the following two-line orbital elements,

1 44766C 19074BF  21055.75522406 -.00010188  00000-0 -68254-3 0   553
2 44766  53.0552 201.9143 0002320 112.0668 340.2163 15.06409613    15
Epoch (UTC): 24 February 2021 18:07:31
Eccentricity: 0.0002320
inclination: 53.0552°
perigee height: 545 km
apogee height: 549 km
right ascension of ascending node: 201.9143°
argument of perigee: 112.0668°
revolutions per day: 15.06409613
mean anomaly at epoch: 340.2163°
orbit number at epoch: 1

The dashed part of the orbit path shows where the satellite is in the earth's shadow,  

DLR